Regional Weather Roundup
Issued by NWS Kansas City/Pleasant Hill, MO

Home | Current Version | Previous Version | Graphics & Text | Print | Product List | Glossary Off
Versions: 1 2 3 4 5 6 7 8 9 10 11 12 13 14 15 16 17 18 19 20 21 22 23 24 25 26 27

000
ASUS43 KEAX 280510
RWREAX

WEATHER ROUNDUP FOR EASTERN KANSAS AND NORTHWEST MISSOURI
NATIONAL WEATHER SERVICE KANSAS CITY/PLEASANT HILL MO
1200 AM CDT TUE MAR 28 2017

KSZ040-057-103>105-MOZ028-029-037-043-280600-
...KANSAS CITY METROPOLITAN AREA...

CITY           SKY/WX    TMP DP  RH WIND       PRES   REMARKS
K.C. INTL      CLOUDY    50  46  86 N5        30.00S
K.C. DOWNTOWN  CLOUDY    52  46  80 NE6       30.00R
LEES SUMMIT    CLOUDY    50  48  93 NE6       30.00S
OLATHE - IXD   CLOUDY    50  45  83 N7        30.00S
OLATHE - OJC   CLOUDY    50  46  86 N5        30.00R
LAWRENCE       CLOUDY    51  47  86 N5        30.01S

$$

MOZ001>008-011>017-020>025-030>033-038>040-044>046-053-054-280600-
...NORTHERN AND CENTRAL MISSOURI...

CITY           SKY/WX    TMP DP  RH WIND       PRES   REMARKS
ST. JOSEPH     CLOUDY    47  45  93 N3        30.02R
MOSBY          CLOUDY    50  45  81 NE3       30.01R
WARRENSBURG    CLOUDY    48  46  93 N5        30.00S
WHITEMAN AFB   CLOUDY    50  50 100 N7        29.99R
CLINTON        CLOUDY    50  50 100 N6        30.00R
SEDALIA        CLOUDY    51  50  96 N8        29.99S FOG
WARSAW         NOT AVBL
CHILLICOTHE      N/A     49  46  90 NE6       30.01S
KIRKSVILLE     CLOUDY    48  47  96 N8        30.00F FOG

$$

MOZ041-047>049-056>058-063>065-088>090-097-280600-
...EASTERN AND SOUTHERN MISSOURI...

CITY           SKY/WX    TMP DP  RH WIND       PRES   REMARKS
ST. LOUIS INTL MOCLDY    56  52  86 N7        29.94S
SPIRIT OF STL  CLOUDY    56  53  90 N7        29.94R
COLUMBIA       CLOUDY    52  51  97 N6        29.98R
JEFFERSON CITY CLOUDY    56  52  86 N5        29.97S
ROLLA          CLOUDY    52  52 100 W6        29.96R FOG
OSAGE BEACH    CLOUDY   N/A N/A N/A CALM      29.97F
SPRINGFIELD    CLOUDY    52  49  89 N6        29.96S
BRANSON        CLOUDY    52  50  93 N8        29.96F
JOPLIN         CLOUDY    52  50  93 N3        29.98S
WEST PLAINS    MOCLDY    54  50  86 N8        29.95R

$$

IAZ060-094-KSZ022-034>040-054-083-096-NEZ052-066-093-280600-
...KANSAS...SOUTHEAST NEBRASKA AND IOWA...

CITY           SKY/WX    TMP DP  RH WIND       PRES   REMARKS
TOPEKA         CLOUDY    52  45  77 CALM      30.00S
MANHATTAN      CLOUDY    52  46  80 CALM      30.01R
EMPORIA        CLOUDY    51  48  89 CALM      30.00R
CHANUTE        CLOUDY    53  46  77 E3        30.00S
WICHITA        CLOUDY    52  46  80 E8        29.98F
OMAHA          CLOUDY    40  35  83 NE3       30.03R
LINCOLN        CLOUDY    36  34  92 CALM      30.03S
FALLS CITY     CLOUDY    47  42  83 N3        30.01S
LAMONI         CLOUDY    47  43  86 CALM      30.01R
DES MOINES     CLOUDY    48  41  76 N3        30.01S

$$





USA.gov is the U.S. government's official web portal to all federal, state and local government web resources and services.